• MPC Preparation (Info)

  • MPEC 2001-S58 : 2001 SZ269

    The following Minor Planet Electronic Circular may be linked-to from your own Web pages, but must not otherwise be redistributed electronically.

    A form allowing access to any MPEC is at the bottom of this page.


    Read MPEC 2001-S57 Read MPEC 2001-S59


    M.P.E.C. 2001-S58                                Issued 2001 Sept. 27, 19:08 UT
    
         The Minor Planet Electronic Circulars contain information on unusual
             minor planets and routine data on comets.  They are published
       on behalf of Commission 20 of the International Astronomical Union by the
              Minor Planet Center, Smithsonian Astrophysical Observatory,
                              Cambridge, MA 02138, U.S.A.
    
                 Prepared using the Tamkin Foundation Computer Network
    
                                  MPC@CFA.HARVARD.EDU
              URL http://cfa-www.harvard.edu/iau/mpc.html  ISSN 1523-6714
    
                                      2001 SZ269
    
    Observations:
         K01SQ9Z* C2001 09 25.34688 03 14 10.58 +05 51 26.6          18.7        704
         K01SQ9Z  C2001 09 25.36196 03 14 06.30 +05 51 19.3          18.9        704
         K01SQ9Z  C2001 09 25.37669 03 14 02.18 +05 51 11.9          18.9        704
         K01SQ9Z  C2001 09 25.39213 03 13 57.75 +05 51 05.6          18.6        704
         K01SQ9Z  C2001 09 25.40696 03 13 53.56 +05 50 58.3          18.7        704
         K01SQ9Z  C2001 09 26.39844 03 09 28.16 +05 43 16.8          18.7        704
         K01SQ9Z  C2001 09 26.40112 03 09 27.49 +05 43 15.1          18.8        704
         K01SQ9Z  C2001 09 26.41294 03 09 24.12 +05 43 10.0          18.9        704
         K01SQ9Z  C2001 09 26.41608 03 09 23.34 +05 43 07.9          19.0        704
         K01SQ9Z  C2001 09 26.42749 03 09 20.14 +05 43 02.8          18.9        704
         K01SQ9Z  C2001 09 26.43058 03 09 19.35 +05 43 01.9          18.9        704
         K01SQ9Z  C2001 09 26.44200 03 09 16.17 +05 42 56.4          18.8        704
         K01SQ9Z  C2001 09 26.45653 03 09 12.17 +05 42 49.2          19.0        704
         K01SQ9Z  C2001 09 26.46094 03 09 11.03 +05 42 46.8          18.9        704
         K01SQ9Z  C2001 09 26.47284 03 09 08.02 +05 42 42.9          18.4        644
         K01SQ9Z  C2001 09 26.48405 03 09 04.95 +05 42 37.6          18.5        644
         K01SQ9Z  C2001 09 26.49492 03 09 01.96 +05 42 32.9          18.3        644
         K01SQ9Z  C2001 09 26.94067 03 07 07.28 +05 39 00.0                      587
         K01SQ9Z  C2001 09 26.94403 03 07 06.33 +05 38 59.0                      587
         K01SQ9Z  C2001 09 26.94819 03 07 05.35 +05 38 56.5                      587
         K01SQ9Z  C2001 09 27.45440 03 04 53.01 +05 35 14.9          17.8 R      711
         K01SQ9Z  C2001 09 27.46168 03 04 50.86 +05 35 11.5          17.6 R      711
         K01SQ9Z  C2001 09 27.46885 03 04 49.12 +05 35 08.2          17.6 R      711
    
    Observer details:
    587 Sormano.  Observers F. Manca, A. Testa.  0.5-m reflector + CCD.
    644 Palomar Mountain/NEAT.  Observers E. F. Helin, S. Pravdo, K. Lawrence,
        M. Hicks, E. Hovland, T. Bickler, J. Schroeder, L. Scherr, R. Thicksten,
        A. Deetz.  1.2-m Schmidt + CCD.
    704 Lincoln Laboratory ETS, New Mexico.  Observers M. Blythe, F. Shelly,
        M. Bezpalko, R. Huber, L. Manguso, S. Adams.  Measurers J. Stuart,
        R. Sayer, J. B. Evans, H. Viggh.  1.0-m f/2.15 reflector + CCD.
    711 McDonald Observatory.  Observer J. G. Ries.  0.76-m reflector + CCD.
    
    Orbital elements:
    2001 SZ269                                                           PHA 0.034
    Epoch 2001 Sept. 8.0 TT = JDT 2452160.5                 Spahr
    M  11.74591              (2000.0)            P               Q
    n   0.27122214     Peri.  190.69483     +0.33031246     +0.94289594
    a   2.3636652      Node    98.60340     -0.86275047     +0.32004874
    e   0.6680336      Incl.    2.48709     -0.38282543     +0.09228246
    P   3.63           H   19.0           G   0.15
    From 23 observations 2001 Sept. 25-27.
    
    Ephemeris:
    2001 SZ269               a,e,i = 2.36, 0.67, 2                   q = 0.7847
    Date    TT    R. A. (2000) Decl.     Delta      r     Elong.  Phase     V
    2001 09 18    03 51.35   +06 52.2    0.216    1.120   117.2    52.9    17.9
    2001 09 28    03 02.59   +05 31.4    0.271    1.219   138.8    32.8    18.0
    2001 10 08    02 26.19   +04 26.9    0.340    1.319   157.1    17.1    18.2
    2001 10 18    01 59.71   +03 46.1    0.427    1.419   170.9     6.4    18.4
    2001 10 28    01 41.83   +03 31.3    0.532    1.518   168.3     7.6    19.1
    2001 11 07    01 31.12   +03 39.9    0.656    1.616   157.2    13.8    19.9
    2001 11 17    01 26.07   +04 07.3    0.797    1.711   146.5    18.6    20.6
    2001 11 27    01 25.46   +04 49.5    0.954    1.804   136.6    22.1    21.2
    2001 12 07    01 28.23   +05 42.6    1.125    1.894   127.5    24.4    21.8
    
    Timothy B. Spahr             (C) Copyright 2001 MPC           M.P.E.C. 2001-S58
    

    Read MPEC 2001-S57 Read MPEC 2001-S59


    MPEC number:

    Enter an MPEC number in one of the following forms:

    • 1997-B01 (the full form)
    • J97B01 (the packed version of the full form)
    • B01 (the abbreviated form)